Location: Vancouver
(49.2500°N, 123.1330°W)
Time: 16:57:28
(UTC-07:00)

BREEZE-M DEB (TANK) - Visible Passes

Search period start: 30 September 2014 00:00
Search period end: 10 October 2014 00:00
Orbit: 283 x 13648 km, 49.6° (Epoch: 28 September)

Date Brightness Start Highest point End Pass type
(mag) Time Alt. Az. Time Alt. Az. Time Alt. Az.
01 Oct 8.9 17:56:44 10° WNW 18:27:31 30° WSW 19:39:52 10° SW visible
02 Oct 6.1 06:20:22 10° SE 06:23:33 14° E 06:28:51 10° ENE visible
02 Oct 10.0 19:52:42 10° W 20:05:27 11° W 20:21:38 10° WSW visible
04 Oct 9.2 18:27:25 10° WNW 18:54:20 21° WSW 19:46:38 10° SW visible
05 Oct 5.5 06:44:28 10° S 06:48:41 26° ESE 06:59:36 10° ENE visible
06 Oct 8.6 17:12:03 10° WNW 17:41:04 32° WSW 18:53:38 10° SSW visible
07 Oct 6.1 05:38:42 10° ESE 05:39:50 10° E 05:41:08 10° E visible
07 Oct 9.7 19:04:08 10° W 19:19:46 12° W 19:41:27 10° WSW visible
09 Oct 8.9 17:41:34 10° WNW 18:07:41 22° WSW 19:01:30 10° SW visible
